Terug naar catalogus

FENGYUN 1C DEB

ActiefSSO
NORAD 31212·DEBRIS·🇨🇳 China

Gelanceerd May 10, 1999 vanaf Taiyuan Satellite Launch Center

Loading…

Volgende Passages (komende 24 uur)

TLE

VersSource: Space-Track

Epoch: Sep 13, 2026, 15:13 UTC

1 31212U 99025BKS 26256.63468967  .00001508  00000-0  79168-3 0  9992
2 31212  99.1974 301.1953 0074950 119.8950 240.9695 14.14313729995430

Volg FENGYUN 1C DEB in realtime met AllMySat

Download on the App Store